Weather History for Grove, OK

Change the Weather History Date:

Tuesday, April 9, 2013

  Actual Average (KSLG) Record (KSLG)
Temperature  
Mean Temperature 74 °F -  
Max Temperature 80 °F 64 °F 86 °F (2011)
Min Temperature 68 °F 45 °F 30 °F (2003)
Cooling Degree Days 9    
Growing Degree Days 24 (Base 50)    
Moisture  
Dew Point 60 °F    
Average Humidity 62    
Maximum Humidity 73    
Minimum Humidity 51    
Precipitation  
Precipitation 0.00 in - - ()
Sea Level Pressure  
Sea Level Pressure 29.73 in    
Wind  
Wind Speed 10 mph (SSE)    
Max Wind Speed 18 mph    
Max Gust Speed 26 mph    
Visibility 10 miles    
Events      
Averages and records for this station are not official NWS values.
T = Trace of Precipitation, MM = Missing Value Source: NWS Daily Summary

Daily Weather History Graph

Daily Weather History Graph

Search for Another Location

Airport:

Trip Planner

Search our weather history database for the weather conditions in past years. The results will help you decide how hot, cold, wet, or windy it might be!

Date:

Astronomy

Apr. 09, 2013 Rise Set
Actual Time 6:53 AM CDT 7:48 PM CDT
Civil Twilight 6:26 AM CDT 8:14 PM CDT
Nautical Twilight 5:55 AM CDT 8:46 PM CDT
Astronomical Twilight 5:23 AM CDT 9:18 PM CDT
Moon 6:15 AM CDT (4/9) 7:24 PM CDT (4/9)
Length of Visible Light 13h 47m
Length of Day
12h 55m
Waning Crescent, 1% of the Moon is Illuminated
Apr 9
Waning Crescent
Apr 10
New
Apr 18
First Quarter
Apr 25
Full
May 2
Last Quarter

Hourly Weather History & Observations

Time (CDT) Temp. Heat Index Dew Point Humidity Pressure Visibility Wind Dir Wind Speed Gust Speed Precip Events Conditions
12:15 AM 69.8 °F - 59.0 °F 68% 29.72 in 10.0 mi ESE 5.8 mph - N/A   Overcast
12:35 AM 69.8 °F - 59.0 °F 68% 29.72 in 10.0 mi SE 6.9 mph - N/A   Overcast
12:55 AM 69.8 °F - 59.0 °F 68% 29.71 in 10.0 mi SE 6.9 mph - N/A   Overcast
1:15 AM 71.6 °F - 59.0 °F 64% 29.72 in 10.0 mi SE 9.2 mph - N/A   Overcast
1:35 AM 71.6 °F - 59.0 °F 64% 29.72 in 10.0 mi SSE 12.7 mph 16.1 mph N/A   Overcast
1:55 AM 71.6 °F - 59.0 °F 64% 29.71 in 10.0 mi SSE 11.5 mph - N/A   Overcast
2:15 AM 71.6 °F - 59.0 °F 64% 29.71 in 10.0 mi SSE 11.5 mph 17.3 mph N/A   Overcast
2:35 AM 71.6 °F - 59.0 °F 64% 29.71 in 10.0 mi SSE 11.5 mph 19.6 mph N/A   Overcast
2:55 AM 71.6 °F - 59.0 °F 64% 29.70 in 10.0 mi SSE 13.8 mph 18.4 mph N/A   Overcast
3:15 AM 71.6 °F - 59.0 °F 64% 29.69 in 10.0 mi SSE 13.8 mph 19.6 mph N/A   Overcast
3:35 AM 71.6 °F - 59.0 °F 64% 29.69 in 10.0 mi SSE 12.7 mph - N/A   Overcast
3:55 AM 69.8 °F - 59.0 °F 68% 29.70 in 10.0 mi South 13.8 mph 19.6 mph N/A   Overcast
4:15 AM 69.8 °F - 57.2 °F 64% 29.70 in 7.0 mi SSE 8.1 mph - N/A   Scattered Clouds
4:35 AM 69.8 °F - 57.2 °F 64% 29.71 in 10.0 mi SSE 9.2 mph 18.4 mph N/A   Clear
4:55 AM 68.0 °F - 57.2 °F 68% 29.71 in 10.0 mi SSE 9.2 mph - N/A   Scattered Clouds
5:15 AM 68.0 °F - 57.2 °F 68% 29.71 in 10.0 mi SSE 12.7 mph - N/A   Mostly Cloudy
5:35 AM 68.0 °F - 55.4 °F 64% 29.71 in 10.0 mi South 11.5 mph 19.6 mph N/A   Overcast
5:55 AM 68.0 °F - 55.4 °F 64% 29.71 in 10.0 mi SSE 13.8 mph 19.6 mph N/A   Overcast
6:15 AM 68.0 °F - 55.4 °F 64% 29.72 in 10.0 mi SSE 12.7 mph - N/A   Overcast
6:35 AM 68.0 °F - 55.4 °F 64% 29.72 in 10.0 mi SSE 9.2 mph - N/A   Overcast
6:55 AM 68.0 °F - 57.2 °F 68% 29.73 in 10.0 mi SE 8.1 mph - N/A   Overcast
7:15 AM 68.0 °F - 57.2 °F 68% 29.74 in 10.0 mi SSE 9.2 mph - N/A   Overcast
7:35 AM 68.0 °F - 59.0 °F 73% 29.74 in 10.0 mi SSE 9.2 mph - N/A   Overcast
7:55 AM 68.0 °F - 59.0 °F 73% 29.74 in 10.0 mi SSE 11.5 mph 16.1 mph N/A   Overcast
8:15 AM 69.8 °F - 59.0 °F 68% 29.75 in 10.0 mi SSE 16.1 mph 19.6 mph N/A   Overcast
8:35 AM 69.8 °F - 59.0 °F 68% 29.75 in 10.0 mi South 11.5 mph - N/A   Overcast
8:55 AM 69.8 °F - 60.8 °F 73% 29.75 in 10.0 mi South 12.7 mph 21.9 mph N/A   Overcast
9:15 AM 69.8 °F - 60.8 °F 73% 29.76 in 10.0 mi South 12.7 mph 18.4 mph N/A   Overcast
9:35 AM 71.6 °F - 60.8 °F 69% 29.76 in 10.0 mi South 16.1 mph - N/A   Overcast
9:55 AM 71.6 °F - 60.8 °F 69% 29.77 in 10.0 mi South 17.3 mph 20.7 mph N/A   Overcast
10:15 AM 71.6 °F - 60.8 °F 69% 29.77 in 10.0 mi South 16.1 mph 19.6 mph N/A   Overcast
10:35 AM 73.4 °F - 62.6 °F 69% 29.77 in 10.0 mi South 18.4 mph 25.3 mph N/A   Overcast
10:55 AM 73.4 °F - 62.6 °F 69% 29.77 in 10.0 mi South 13.8 mph 26.5 mph N/A   Overcast
11:15 AM 73.4 °F - 60.8 °F 65% 29.77 in 10.0 mi South 15.0 mph 20.7 mph N/A   Overcast
11:35 AM 73.4 °F - 62.6 °F 69% 29.77 in 10.0 mi SSE 11.5 mph - N/A   Overcast
11:55 AM 75.2 °F - 62.6 °F 65% 29.77 in 10.0 mi SSE 13.8 mph 17.3 mph N/A   Overcast
12:15 PM 77.0 °F - 62.6 °F 61% 29.77 in 10.0 mi South 15.0 mph 21.9 mph N/A   Overcast
12:35 PM 77.0 °F - 62.6 °F 61% 29.76 in 10.0 mi South 12.7 mph 18.4 mph N/A   Overcast
12:55 PM 77.0 °F - 62.6 °F 61% 29.75 in 10.0 mi South 12.7 mph 19.6 mph N/A   Mostly Cloudy
1:15 PM 77.0 °F - 62.6 °F 61% 29.76 in 10.0 mi South 10.4 mph 20.7 mph N/A   Overcast
1:35 PM 77.0 °F - 62.6 °F 61% 29.75 in 10.0 mi SSE 8.1 mph - N/A   Overcast
1:55 PM 78.8 °F - 62.6 °F 57% 29.75 in 10.0 mi South 9.2 mph - N/A   Mostly Cloudy
2:15 PM 80.6 °F 81.8 °F 62.6 °F 54% 29.74 in 10.0 mi SE 9.2 mph - N/A   Mostly Cloudy
2:35 PM 80.6 °F 81.8 °F 62.6 °F 54% 29.73 in 10.0 mi SE 12.7 mph 20.7 mph N/A   Mostly Cloudy
2:55 PM 80.6 °F 81.8 °F 62.6 °F 54% 29.73 in 10.0 mi SSE 11.5 mph 20.7 mph N/A   Mostly Cloudy
3:15 PM 80.6 °F 81.8 °F 62.6 °F 54% 29.73 in 10.0 mi SSE 12.7 mph 20.7 mph N/A   Mostly Cloudy
3:35 PM 78.8 °F - 62.6 °F 57% 29.72 in 10.0 mi SE 10.4 mph 17.3 mph N/A   Mostly Cloudy
3:55 PM 80.6 °F 81.8 °F 62.6 °F 54% 29.72 in 10.0 mi SSE 10.4 mph - N/A   Overcast
4:15 PM 80.6 °F 81.8 °F 62.6 °F 54% 29.71 in 10.0 mi SE 11.5 mph 19.6 mph N/A   Overcast
4:35 PM 80.6 °F 81.8 °F 62.6 °F 54% 29.71 in 10.0 mi SE 12.7 mph 19.6 mph N/A   Mostly Cloudy
4:55 PM 78.8 °F - 62.6 °F 57% 29.71 in 10.0 mi SE 9.2 mph 18.4 mph N/A   Overcast
5:15 PM 80.6 °F 81.8 °F 62.6 °F 54% 29.71 in 10.0 mi SSE 9.2 mph - N/A   Overcast
5:35 PM 78.8 °F - 62.6 °F 57% 29.71 in 10.0 mi SE 9.2 mph - N/A   Overcast
5:55 PM 80.6 °F 81.5 °F 60.8 °F 51% 29.71 in 10.0 mi SE 9.2 mph - N/A   Overcast
6:15 PM 78.8 °F - 60.8 °F 54% 29.71 in 10.0 mi SE 5.8 mph - N/A   Overcast
6:35 PM 78.8 °F - 62.6 °F 57% 29.71 in 10.0 mi SE 6.9 mph - N/A   Overcast
6:55 PM 78.8 °F - 60.8 °F 54% 29.71 in 10.0 mi ESE 6.9 mph - N/A   Overcast
7:15 PM 78.8 °F - 62.6 °F 57% 29.71 in 10.0 mi SE 6.9 mph - N/A   Mostly Cloudy
7:35 PM 77.0 °F - 62.6 °F 61% 29.71 in 10.0 mi SE 5.8 mph - N/A   Overcast
7:55 PM 77.0 °F - 60.8 °F 57% 29.72 in 10.0 mi SE 6.9 mph - N/A   Overcast
8:15 PM 77.0 °F - 60.8 °F 57% 29.72 in 7.0 mi SE 6.9 mph - N/A   Overcast
8:35 PM 77.0 °F - 60.8 °F 57% 29.73 in 10.0 mi SSE 9.2 mph - N/A   Overcast
8:55 PM 77.0 °F - 59.0 °F 54% 29.73 in 10.0 mi SSE 9.2 mph - N/A   Overcast
9:15 PM 77.0 °F - 59.0 °F 54% 29.73 in 10.0 mi SE 9.2 mph - N/A   Overcast
9:35 PM 77.0 °F - 59.0 °F 54% 29.73 in 10.0 mi SSE 10.4 mph - N/A   Overcast
9:55 PM 75.2 °F - 59.0 °F 57% 29.72 in 10.0 mi SSE 8.1 mph - N/A   Scattered Clouds
10:15 PM 75.2 °F - 59.0 °F 57% 29.73 in 10.0 mi South 5.8 mph - N/A   Scattered Clouds
10:35 PM 75.2 °F - 59.0 °F 57% 29.73 in 10.0 mi SSE 6.9 mph - N/A   Mostly Cloudy
10:55 PM 75.2 °F - 59.0 °F 57% 29.72 in 10.0 mi SSE 5.8 mph - N/A   Mostly Cloudy
11:15 PM 73.4 °F - 59.0 °F 61% 29.73 in 10.0 mi South 4.6 mph - N/A   Scattered Clouds
11:35 PM 75.2 °F - 59.0 °F 57% 29.73 in 10.0 mi South 8.1 mph - N/A   Mostly Cloudy
11:55 PM 75.2 °F - 59.0 °F 57% 29.73 in 10.0 mi South 8.1 mph - N/A   Mostly Cloudy